Regional Weather Roundup
Issued by NWS Memphis, TN

Home | Current Version | Previous Version | Text Only | Print | Product List | Glossary On
Versions: 1 2 3 4 5 6 7 8 9 10 11 12 13 14 15 16 17 18 19 20 21 22 23 24 25 26 27 28 29 30 31 32 33 34 35 36 37 38 39 40 41 42 43 44 45 46 47 48 49 50
000
ASUS44 KMEG 090210
RWRMEG
MEMPHIS CWA HOURLY WEATHER ROUNDUP
NATIONAL WEATHER SERVICE MEMPHIS TN
800 PM CST MON FEB 08 2016

...WEST TENNESSEE...

CITY           SKY/WX    TMP DP  RH WIND       PRES   REMARKS
MEMPHIS INTL   CLOUDY    38  20  48 NW13      30.01S WCI  30
NWS MEMPHIS      N/A     37 N/A N/A MISG        N/A
JACKSON        CLOUDY    35  20  54 NW15G29   29.96S WCI  25
DYERSBURG      CLOUDY    34  19  55 W13G20    29.99S WCI  25
UNION CITY     CLOUDY    30  18  59 NW10      29.94F WCI  21
PARIS          CLOUDY    28  16  59 W15       29.93S WCI  17


...EASTERN ARKANSAS...

CITY           SKY/WX    TMP DP  RH WIND       PRES   REMARKS
JONESBORO      CLOUDY    35  20  54 NW14G20   30.00F WCI  26
WEST MEMPHIS   CLOUDY    37  22  54 NW12G25   30.02S WCI  29
BATESVILLE     CLOUDY    37  16  41 W10G21    30.04S WCI  30
NEWPORT        CLOUDY    37  18  46 NW16      30.04F WCI  27
WALNUT RIDGE   CLOUDY    36  18  48 NW24G32   30.02S WCI  24
BLYTHEVILLE    CLOUDY    36  22  56 NW24G35   30.00S WCI  24
SEARCY         CLOUDY    39  18  41 NW14      30.07F WCI  31
STUTTGART      CLOUDY    39  21  48 NW12      30.08R WCI  32
PINE BLUFF     CLEAR     40  17  39 NW10      30.08R WCI  33
MONTICELLO     CLEAR     38  19  46 NW3       30.08R


...NORTH MISSISSIPPI...

CITY           SKY/WX    TMP DP  RH WIND       PRES   REMARKS
TUPELO         CLOUDY    40  21  46 NW9G25    29.99R WCI  34
OXFORD         CLOUDY    37  18  44 NW17G26   30.03R WCI  28
OLIVE BRANCH   CLOUDY    36  21  55 NW15G25   30.01S WCI  26
TUNICA         CLOUDY    37  21  52 NW13      30.05S WCI  29
CORINTH        CLOUDY    37  23  56 W21       29.96F WCI  27
GREENWOOD      CLOUDY    42  19  39 VRB6      30.04S
COLUMBUS       CLOUDY    40  24  52 W8        29.97S WCI  35
STARKVILLE     CLOUDY    36  23  60 W5        29.99F WCI  32
GOLDEN TRIANGL MOCLDY    39  21  48 W6        29.98S WCI  35


...SOUTHEAST MISSOURI...

CITY           SKY/WX    TMP DP  RH WIND       PRES   REMARKS
WEST PLAINS    FLURRIES  29  20  69 NW18G26   29.99F WCI  16
POPLAR BLUFF   CLOUDY    32  18  56 NW20G30   29.97S WCI  20
CAPE GIRARDEAU CLOUDY    29  18  63 NW17G24   29.96F WCI  17


...NORTHWEST ALABAMA...

CITY           SKY/WX    TMP DP  RH WIND       PRES   REMARKS
MUSCLE SHOALS  CLOUDY    38  24  57 NW12      29.95R WCI  30


...MIDDLE TENNESSEE...

CITY           SKY/WX    TMP DP  RH WIND       PRES   REMARKS
NASHVILLE      LGT SNOW  31  25  78 NW7       29.90S WCI  24
CLARKSVILLE    LGT SNOW  29  23  78 NW15G24   29.91R WCI  18
COLUMBIA       MOCLDY    30  30 100 W6        29.90R WCI  24


...WESTERN KENTUCKY...

CITY           SKY/WX    TMP DP  RH WIND       PRES   REMARKS
PADUCAH        LGT SNOW  28  20  71 NW8       29.94S WCI  20
FORT CAMPBELL  FLURRIES  28  22  79 NW13      29.91R WCI  18


...CENTRAL ARKANSAS...

CITY           SKY/WX    TMP DP  RH WIND       PRES   REMARKS
LITTLE ROCK    PTCLDY    40  16  37 NW6       30.08S


SKY/WX REPORTED AS FAIR MEANS FEW OR NO CLOUDS BELOW
12 THOUSAND FEET.




USA.gov is the U.S. government's official web portal to all federal, state and local government web resources and services.